Location: Highridge
(54.0333°N, 114.1333°W)
Time: 07:07:58
(UTC+00:00)

SO-50 - Pass Details

Date: 10 December 2023
Orbit: 608 x 660 km, 64.6° (Epoch: 02 March)

Event Time Altitude Azimuth Distance (km) Brightness Sun altitude
Exits shadow 11:38:39 16° 37° (NE) 1,701 ? -34.5°
Drops below altitude 10° 11:39:35 10° 41° (NE) 2,040 ? -34.3°
Sets 11:41:57 0° 48° (NE) 2,941 ? -34.0°
